Погода в Старцеве

Россия / Орловская область     53°00′11″N   36°09′26″E
темп.,
°C
ветер,
м/с
пор.,
м/с
влажн.,
%
обл.,
%
осадки,
мм/ч
давл.,
гПа
погр.,
м
20 мая, пт
пт2000:00+7ссз358552 0.0 101689
03:00+7ссз2387100 0.1 101571
06:00+8ссв2792100 0.3 1017280
09:00+11ссв46720 0.3 1017896
12:00+13с4554100 0.0 10181605
15:00+14с3450100 0.0 10171843
18:00+12всв3469100 0.0 1016331
21:00+9вюв3469100 0.0 101685
21 мая, сб
сб2100:00+8юв4870100 0.0 1015218
03:00+8юв41072100 0.0 1014346
06:00+7юв5983100 0.2 1012386
09:00+7вюв61189100 1.1 1011626
12:00+8вюв6990100 1.3 1010930
15:00+8юв5887100 1.3 1009791
18:00+7юв5988100 0.0 1008518
21:00+6вюв4989100 0.0 1007405
22 мая, вс
вс2200:00+6вюв4990100 0.1 1005427
03:00+6в4995100 1.8 1003418
06:00+5в71193100 4.0 1002602
09:00+5в71295100 9.8 1002759
12:00+7в51090100 1.9 1003858
15:00+8всв2591100 2.4 1004519
18:00+9св2686100 0.4 1004443
21:00+6ссв338678 0.8 100537
23 мая, пн
пн2300:00+4ссв35885 0.0 100769
03:00+2с34875 0.0 100759
06:00+3с37875 0.0 1009155
09:00+8с58610 0.0 1009942
12:00+11с564883 0.0 10092145
15:00+13с4745100 0.0 10082292
18:00+13ссз3558100 0.0 10081331
21:00+7ссз346910 0.0 101056
24 мая, вт
вт2400:00+4ссз34725 0.0 101155
03:00+3сз357398 0.0 101282
06:00+4сз3874100 0.0 1013187
09:00+9ссз5960100 0.0 1013482
12:00+12сз6956100 0.0 10131256
15:00+14ссз51167100 0.0 10131782
18:00+14ссз5107060 0.2 1013833
21:00+9сз3385100 0.4 101631